Simultaneous Nadir Overpasses (SNOs) Predictions

Prediction of SNOs over PacNW region [( 10.00, 139.50) to ( 22.70, 165.60)] between AQUA and NPP Satellites:

Table of predicted SNOs over PacNW region for the next 30.0 days since TLE Epoch: 9/2/2016
Index Date (AQUA) Time (AQUA) AQUA Lat,Lon Date (NPP) Time (NPP) NPP Lat,Lon Distance(km) Time Diff (sec)
1 09/02/2016 15:58:55 22.62, 147.48 09/02/2016 16:02:11 23.25, 144.66 297.97 196
2 09/10/2016 15:09:28 22.58, 159.83 09/10/2016 15:11:22 23.13, 157.33 263.25 114
3 09/13/2016 03:31:17 22.66, 147.53 09/13/2016 03:27:48 23.46, 145.69 208.57 209
4 09/18/2016 15:58:51 22.63, 147.49 09/18/2016 16:01:58 23.27, 144.70 293.85 187
5 09/26/2016 15:09:20 22.62, 159.86 09/26/2016 15:11:08 23.15, 157.39 260.09 108
6 09/29/2016 03:31:08 22.64, 147.55 09/29/2016 03:27:39 23.76, 145.66 229.80 209
